Starlink 36174

operational
NORAD ID: 67166 Int'l Des: 2025-303 Owner: SPXS Country: US Constellation: starlink
LEOCIRCULAR

About Starlink 36174

Description loading...

Live Position

Loading 3D Globe...

Upcoming Passes

Altitude History

Altitude vs Time

uPlot chart will show altitude changes over time

Two-Line Element Set

1 67166U 25303D 26041.21161109 .00041322 00000-0 99035-3 0 9994
2 67166 42.9987 106.6887 0001642 251.4151 108.6528 15.40723012 8525
Epoch: Feb 10, 2026 • Age: 11 hours

Current Status

Altitude 444.2 km
Velocity 7.65 km/s
Sub-Earth Point 22.11°N, 107.26°E
Launch Date Dec 17, 2025
Age 0.1 years
Type internet

Technical Details

Classification Payload
Mass 575.00 kg
Dry Mass 530.00 kg
Total Mass 575.00 kg
Length 0.30 m
Diameter 4.10 m
Span 29.00 m
Shape Box + pan
Manufacturer SPXS
Bus Type Starlink V2MO
Phase Status In Orbit
Owner/State SPXS/US

Large Constellations

Loading constellations...